Location: ??????????
(54.4061°N, 22.6114°E)
Time: 12:17:05
(UTC+00:00)

CZ-4 R/B - Pass Details

Date: 23 October 2019
Orbit: 529 x 601 km, 97.8° (Epoch: 21 November)

Event Time Altitude Azimuth Distance (km) Brightness Sun altitude
Rises 16:45:39 0° 172° (S) 2,828 4.9 -13.9°
Reaches altitude 10° 16:47:49 10° 175° (S) 1,936 4.0 -14.2°
Maximum altitude 16:52:01 65° 258° (WSW) 666 1.9 -14.8°
Drops below altitude 10° 16:56:15 10° 341° (NNW) 1,958 4.4 -15.5°
Sets 16:58:28 0° 344° (NNW) 2,864 5.2 -15.8°
